Regional Weather Roundup
Issued by NWS

Home | Current Version | Previous Version | Graphics & Text | Print | Product List | Glossary On
Versions: 1 2 3 4 5 6 7 8 9 10 11 12 13 14 15 16 17 18 19 20 21 22 23 24 25 26 27 28 29 30 31 32 33 34 35 36 37 38 39 40 41 42 43 44 45 46 47 48 49 50
000
ASUS43 KMPX 160101
RWRMN
WEATHER ROUNDUP FOR MINNESOTA
NATIONAL WEATHER SERVICE TWIN CITIES/CHANHASSEN MN
800 PM CDT TUE AUG 15 2017


NOTE: "FAIR" INDICATES FEW OR NO CLOUDS BELOW 12,000 FEET WITH NO
SIGNIFICANT WEATHER AND/OR OBSTRUCTIONS TO VISIBILITY. N/A MEANS
CURRENT SKY AND/OR WEATHER CONDITIONS ARE NOT AVAILABLE.

MNZ060>063-068>070-160200-
   Twin Cities Metro

CITY           SKY/WX    TMP DP  RH WIND       PRES   REMARKS
TWIN CITIES    CLOUDY    71  60  68 SE7       29.93F
ST PAUL        CLOUDY    70  61  73 SE6       29.93F
CRYSTAL        CLOUDY    72  55  55 SE7       29.91F
BLAINE         CLOUDY    73  59  60 E7        29.93F
LAKEVILLE      CLOUDY    64  61  88 E5        29.94F
EDEN PRAIRIE   CLOUDY    72  59  63 E7        29.92F
SOUTH ST PAUL  CLOUDY    71  58  63 SE5       29.93F
LAKE ELMO      FAIR      70  59  68 E5        29.95F
$$
MNZ001>005-007-008-013>017-022>024-027-028-160200-
   Northwest Minnesota

CITY           SKY/WX    TMP DP  RH WIND       PRES   REMARKS
BEMIDJI        CLOUDY    71  58  65 S5        29.93F
HALLOCK        CLOUDY    72  63  73 CALM      29.89F
ROSEAU         CLOUDY    73  63  68 SW3       29.92S
WARROAD        CLOUDY    72  66  83 CALM      29.92F
CROOKSTON      CLOUDY    72  61  68 SE3       29.90F
FOSSTON        CLOUDY    70  59  68 SE5       29.93S
DETROIT LAKES  CLOUDY    70  59  68 SE8       29.91F
MOORHEAD       CLOUDY    70  61  73 E7        29.85F
PARK RAPIDS    CLOUDY    71  60  68 SE5       29.93F
MAHNOMEN       CLOUDY    69  58  69 SE5       29.90F
$$
MNZ006-009>011-018-025>026-160200-
   North Central Minnesota

CITY           SKY/WX    TMP DP  RH WIND       PRES   REMARKS
BAUDETTE       CLOUDY    73  60  63 SE3       29.92F
FLAG ISLAND    CLOUDY    73  64  73 CALM      29.91R
INTL FALLS     MOCLDY    70  58  65 E5        29.93F
WASKISH        CLOUDY    70  61  73 CALM      29.93F
BIG FORK       CLOUDY    70  61  73 CALM      29.95S
LONGVILLE      CLOUDY    68  61  77 CALM      29.94F
GRAND RAPIDS   CLOUDY    69  62  78 CALM      29.97F
CRANE LAKE     CLEAR     64  63  94 CALM      29.97F
ORR            CLOUDY    70  57  64 SE5       29.94S
COOK             N/A     72  57  60 SE5       29.98S
WALKER         FAIR      69  60  71 CALM      29.93F
$$
MNZ012-019>021-037-160200-
   Northeast Minnesota

CITY           SKY/WX    TMP DP  RH WIND       PRES   REMARKS
DULUTH         CLOUDY    62  56  80 E7        30.00S
ELY            CLEAR     66  54  63 SE8       30.01S
HIBBING        CLOUDY    67  56  67 SE7       29.98S
EVELETH        MOCLDY    67  52  58 SE5       30.00F
DULUTH HARBOR  PTCLDY    64  63  94 NE18      29.99F
TWO HARBORS    CLOUDY    64  55  72 E3        30.00S
SILVER BAY     CLEAR     61  55  82 NE6       30.01S
GRAND MARAIS     N/A     62  58  86 CALM      30.02F
$$
MNZ029>031-032-039>041-046>048-054>057-064-160200-
   West Central Minnesota

CITY           SKY/WX    TMP DP  RH WIND       PRES   REMARKS
FERGUS FALLS   CLOUDY    70  57  64 SE7       29.86F
WHEATON        CLOUDY    66  59  77 E8        29.86S
MORRIS         MOCLDY    68  63  83 SE8       29.86F
ALEXANDRIA     CLOUDY    68  58  70 E9        29.91F
ELBOW LAKE     FAIR      67  59  74 SE10      29.87F
WADENA         CLOUDY    68  61  77 E6        29.91F
GLENWOOD       CLOUDY    66  61  82 E7        29.90F
APPLETON       CLOUDY    70  61  73 SE10      29.85F
BENSON         CLOUDY    70  61  73 SE9       29.88F
ORTONVILLE     MOCLDY    68  61  77 MISG      29.85S
MADISON        CLOUDY    70  63  78 SE10      29.86S
WILLMAR        FAIR      70  63  78 SE8       29.90F
$$
MNZ033>034-036-042>043-049>051-058-059-160200-
   Central Minnesota

CITY           SKY/WX    TMP DP  RH WIND       PRES   REMARKS
ST CLOUD       CLOUDY    70  60  70 E6        29.91F
SAUK CENTRE    FAIR      68  58  72 E6        29.91F
PAYNESVILLE    CLOUDY    69  59  69 E6        29.91F
AITKIN         PTCLDY    66  63  88 E3        29.94F
PINE RIVER     CLOUDY    66  59  77 SE3       29.96F
BRAINERD       PTCLDY    70  61  73 E3        29.93F
STAPLES        CLOUDY    68  57  68 CALM      29.92F
LONG PRAIRIE   MOCLDY    66  59  77 E5        29.92F
LITTLE FALLS   MOCLDY    68  59  73 E5        29.92F
LITCHFIELD     CLOUDY    68  63  83 SE3       29.91F
BUFFALO        CLOUDY    70  59  67 CALM      29.93F
MAPLE LAKE     CLOUDY    70  61  73 CALM      29.93F
HUTCHINSON     MOCLDY    67  62  82 E7        29.92F
$$
MNZ037-044-045-052-053-160200-
   East Central Minnesota

CITY           SKY/WX    TMP DP  RH WIND       PRES   REMARKS
PRINCETON      MOCLDY    72  61  68 E3        29.93F
MORA           PTCLDY    64  59  82 SE3       29.96F
RUSH CITY      CLOUDY    68  60  76 CALM      29.95F
MOOSE LAKE     CLOUDY    68  61  77 NE3       29.96S
HINCKLEY       FAIR      70  63  78 E3        29.96F
CLOQUET        PTCLDY    64  55  72 E5        29.99F
MCGREGOR       PTCLDY    70  61  73 E7        29.96F
$$
MNZ071>073-080-081-089-090-097-098-160200-
   Southwest Minnesota

CITY           SKY/WX    TMP DP  RH WIND       PRES   REMARKS
MONTEVIDEO     CLOUDY    66  61  82 SE9       29.87F
GRANITE FALLS  CLOUDY    69  64  83 E6        29.89S
CANBY          CLOUDY    67  62  85 E12G17    29.87S
MARSHALL       CLOUDY    66  62  87 SE14      29.88S
REDWOOD FALLS  CLOUDY    68  62  81 SE9       29.88F
OLIVIA         CLOUDY    70  63  78 E8        29.89F
PIPESTONE      MOCLDY    66  63  88 SE12      29.86S
WINDOM         CLOUDY    64  61  88 E7        29.90S
WORTHINGTON    LGT RAIN  65  63  93 E8        29.89S
JACKSON        CLOUDY    64  61  88 E8        29.90S
TRACY          CLOUDY    66  64  91 E7        29.89S
SLAYTON        CLOUDY    65  58  79 E9        29.89F
$$
MNZ065>067-074>077-082>085-091>093-160200-
   South Central Minnesota

CITY           SKY/WX    TMP DP  RH WIND       PRES   REMARKS
MANKATO        MOCLDY    67  62  84 SE10      29.92F
NEW ULM        CLOUDY    66  61  82 SE9       29.90F
ST JAMES       CLOUDY    64  63  94 E8        29.90F
FAIRMONT       CLOUDY    66  63  90 SE7       29.91F
GLENCOE        CLOUDY    69  64  83 E6        29.92F
FARIBAULT      MOCLDY    68  61  77 E6        29.94F
OWATONNA       CLOUDY    66  61  82 E6        29.94F
WASECA         CLOUDY    64  59  82 E6        29.94F
ALBERT LEA     CLOUDY    68  63  83 E8        29.93F
$$
MNZ078>079-086>088-094>096-160200-
   Southeast Minnesota

CITY           SKY/WX    TMP DP  RH WIND       PRES   REMARKS
ROCHESTER      MOCLDY    65  62  90 SE3       29.96S
RED WING       CLOUDY    70  59  68 E5        29.93S
STANTON        MOCLDY    69  61  75 SE3       29.93S
DODGE CENTER   CLOUDY    64  61  88 SE3       29.96F
WINONA         CLOUDY    70  63  78 CALM      29.95S
AUSTIN         MOCLDY    64  61  88 CALM      29.95S
PRESTON        PTCLDY    66  60  81 E5        29.96F
$$
ABBREVIATIONS USED IN REMARKS
   TC - TEMPERATURES IN CELSIUS
  WCI - WIND CHILL INDEX
   HX - HEAT INDEX
  VSB - VISIBILITY
$$




USA.gov is the U.S. government's official web portal to all federal, state and local government web resources and services.